156P/Russell-LINEAR (2020)

Japanese version
Home page
Updated on July 7, 2020

---------------------------------------------------------------------

* Profile

* Orbital Elements

Epoch 2020 Nov. 7.0 TT = JDT 2459160.5
T 2020 Nov. 17.87275 TT                                 Rudenko
q   1.3330170            (2000.0)            P               Q
n   0.15314451     Peri.    0.42761     +0.81129040     -0.55883807
a   3.4599389      Node    35.36926     +0.53551498     +0.59242205
e   0.6147282      Incl.   17.26321     +0.23458813     +0.58028970
P   6.44
From 108 observations 1986 Sept. 3-2020 June 28, mean residual 0".5.

* Finding Charts

* Magnitudes Graph

        m1 = 15.8 + 5 log d + 5.0 log r

---------------------------------------------------------------------

The orbital elements are published on M.P.E.C. 2020-N08.
The charts are made with StellaNavigator Ver.10 (AstroArts).
The magnitudes graphs are made with Comet for Windows.

---------------------------------------------------------------------

Copyright(C) Seiichi Yoshida (comet@aerith.net). All rights reserved.